Regional Weather Roundup
Issued by NWS

Home | Current Version | Previous Version | Text Only | Print | Product List | Glossary On
Versions: 1 2 3 4 5 6 7 8 9 10 11 12 13 14 15 16 17 18 19 20 21 22 23 24 25 26 27 28 29 30 31 32 33 34 35 36 37 38 39 40 41 42 43 44 45 46 47 48 49 50
000
ASUS46 KPQR 170610
RWROR

OREGON REGIONAL WEATHER ROUNDUP
NATIONAL WEATHER SERVICE PORTLAND OR
1100 PM PDT TUE SEP 16 2014

NOTE: "FAIR" INDICATES FEW OR NO CLOUDS BELOW 12,000 FEET WITH
NO SIGNIFICANT WEATHER AND/OR OBSTRUCTIONS TO VISIBILITY.

ORZ001>013-170700-
NORTHWEST OREGON


CITY           SKY/WX    TMP DP  RH WIND       PRES   REMARKS
ASTORIA        CLOUDY    59  56  89 CALM      29.86S
6HR MIN TEMP:  58; 6HR MAX TEMP:  64; 6HR PCP: TRACE;

NEWPORT        CLOUDY    57  55  94 E3        29.88F
PORTLAND       CLOUDY    66  57  72 NW3       29.85F
6HR MIN TEMP:  66; 6HR MAX TEMP:  75; 6HR PCP: TRACE;

VANCOUVER WA   CLOUDY    64  56  75 CALM      29.84F
6HR MIN TEMP:  63; 6HR MAX TEMP:  73; 6HR PCP: TRACE;

SCAPPOOSE      CLOUDY    62  56  80 CALM      29.84F
6HR MIN TEMP:  60; 6HR MAX TEMP:  74; 6HR PCP: TRACE;

HILLSBORO      MOCLDY    62  55  77 CALM      29.84F
6HR MIN TEMP:  62; 6HR MAX TEMP:  74;

AURORA         CLOUDY    65  55  70 N7        29.85S
6HR MIN TEMP:  65; 6HR MAX TEMP:  78;

MCMINNVILLE    MOCLDY    63  55  75 NW3       29.84F
6HR MIN TEMP:  61; 6HR MAX TEMP:  79; 6HR PCP: TRACE;

SALEM          MOCLDY    66  54  65 NW6       29.82F
6HR MIN TEMP:  66; 6HR MAX TEMP:  80;

CORVALLIS      CLOUDY    63  54  72 NW10      29.84S
EUGENE         MOCLDY    62  52  69 S3        29.84S
6HR MIN TEMP:  62; 6HR MAX TEMP:  81;

$$

ORZ021-028-170700-
SOUTHWEST OREGON


CITY           SKY/WX    TMP DP  RH WIND       PRES   REMARKS
NORTH BEND     PTCLDY    57  57 100 CALM      29.85F
6HR MIN TEMP:  57; 6HR MAX TEMP:  64;

BROOKINGS      CLOUDY    60  55  83 CALM      29.82S
ROSEBURG       PTCLDY    68  53  58 CALM      29.82F
6HR MIN TEMP:  68; 6HR MAX TEMP:  83;

SEXTON SUMMIT  CLOUDY    64  41  42 N5        29.92F
6HR MIN TEMP:  62; 6HR MAX TEMP:  68; 6HR PCP: TRACE;

MEDFORD        CLOUDY    73  45  36 CALM      29.80F
6HR MIN TEMP:  72; 6HR MAX TEMP:  84;

$$

ORZ009-041-170700-
COLUMBIA GORGE


CITY           SKY/WX    TMP DP  RH WIND       PRES   REMARKS
TROUTDALE      CLOUDY    64  55  72 E5        29.84S
6HR MIN TEMP:  63; 6HR MAX TEMP:  77; 6HR PCP: TRACE;

THE DALLES     CLOUDY    73  48  41 W13       29.79R
6HR MIN TEMP:  73; 6HR MAX TEMP:  83;

$$

ORZ029>031-042>050-061>064-170700-
EASTERN OREGON


CITY           SKY/WX    TMP DP  RH WIND       PRES   REMARKS
REDMOND        MOCLDY    64  39  39 W7        29.90R
6HR MIN TEMP:  58; 6HR MAX TEMP:  87;

BEND           MOCLDY    61  39  44 CALM      29.94R
KLAMATH FALLS  CLOUDY    62  28  27 CALM      29.94S
6HR MIN TEMP:  59; 6HR MAX TEMP:  79;

LAKEVIEW       MOCLDY    55  25  30 S3        30.02S
HERMISTON      PTCLDY    69  44  40 S8        29.77R
6HR MIN TEMP:  64; 6HR MAX TEMP:  87;

PENDLETON      PTCLDY    66  36  32 S3        29.81R
6HR MIN TEMP:  63; 6HR MAX TEMP:  85;

JOHN DAY       MOCLDY    68  33  26 SW5       29.92S
MEACHAM        PTCLDY    49  34  56 CALM      29.94F
6HR MIN TEMP:  49; 6HR MAX TEMP:  78;

LA GRANDE      PTCLDY    64  30  27 NW5       29.86S
6HR MIN TEMP:  63; 6HR MAX TEMP:  91;

BAKER CITY     MOCLDY    58  37  45 S3        29.90S
6HR MIN TEMP:  57; 6HR MAX TEMP:  90;

BURNS          MOCLDY    59  27  29 W10       29.93S
6HR MIN TEMP:  54; 6HR MAX TEMP:  88;

ROME             N/A     64  31  28 SE8       29.91S
6HR MIN TEMP:  63; 6HR MAX TEMP:  91;

ONTARIO        PTCLDY    69  50  50 CALM      29.79S
6HR MIN TEMP:  69; 6HR MAX TEMP:  92;

$$



USA.gov is the U.S. government's official web portal to all federal, state and local government web resources and services.